Terminal Aerodrome Forecast
Issued by NWS

Home | Current Version | Previous Version | Text Only | Print | Product List | Glossary On
Versions: 1 2 3 4 5 6 7 8 9 10 11 12 13 14 15 16 17 18 19 20 21 22 23 24 25 26 27 28 29 30 31 32 33 34 35 36 37 38 39 40 41 42 43 44 45 46 47 48 49 50
000
FTUS44 KLIX 040500
TAFASD
TAF
KASD 040520Z 0406/0506 16006KT P6SM BKN003
      TEMPO 0408/0412 1SM BR
     FM041400 17006KT 3SM BR BKN008
     FM041700 18007KT P6SM BKN015
     FM041900 18008KT P6SM VCTS BKN025CB
     FM050000 18009KT P6SM BKN035=

USA.gov is the U.S. government's official web portal to all federal, state and local government web resources and services.